Location: Gipe Farm
(40.9466°N, 95.5370°W)
Time: 13:10:42
(UTC-06:00)

Daily predictions for brighter satellites

Satellite Brightness Start Highest point End
(mag) Time Altitude Azimuth Time Altitude Azimuth Time Altitude Azimuth
DELTA 2 R/B (1) 3.8 18:23:29 10° WSW 18:29:05 71° S 18:34:41 10° E
Cosmos 44 Rocket 3.6 18:24:40 10° NNW 18:29:14 43° NE 18:33:42 10° SE
Okean 3 3.5 18:26:46 10° N 18:31:07 83° E 18:35:23 10° S
NOSS 2-2 (D) 3.6 18:28:32 10° SSW 18:32:25 53° ESE 18:36:50 10° NE
Cosmos 1697 Rocket 3.8 18:37:10 10° NW 18:42:36 49° WSW 18:48:00 10° S
Meteor 1-18 Rocket 4.4 18:38:13 10° N 18:43:35 47° ENE 18:48:56 10° SSE
Cosmos 2360 Rocket 3.7 18:40:13 10° N 18:43:50 17° NE 18:46:58 11° E
NOSS 5 (C) 4.3 18:41:33 10° SSW 18:45:13 72° SE 18:48:20 10° NE
Cosmos 1980 Rocket 2.4 18:39:33 10° NNW 18:45:15 80° WSW 18:50:56 10° SSE
Cosmos 1461 4.2 18:43:07 10° N 18:46:07 20° NE 18:48:31 13° E
SJ-6B 3.1 18:44:43 10° SE 18:48:37 46° ENE 18:52:27 10° N
Tiangong 2 1.3 18:45:47 10° W 18:48:50 58° N 18:51:10 16° E
NOSS 2-2 (C) 3.4 18:45:33 10° SSW 18:49:33 82° ESE 18:54:08 10° NE
SKYMED 2 4.2 18:46:13 10° N 18:50:31 61° WNW 18:54:47 10° SSW
Cosmos 1992 Rocket 4.0 18:46:05 10° NNW 18:51:19 69° ENE 18:56:31 10° SSE
Cosmos 1975 Rocket 3.0 18:47:25 10° N 18:51:46 85° E 18:56:05 10° S
Cosmos 407 Rocket 4.1 18:47:40 10° SSE 18:52:21 35° E 18:57:07 10° NE
SL-08 R/B 4.5 18:47:32 10° S 18:53:39 89° E 18:59:50 10° N
Meteor 1-14 Rocket 4.4 18:48:24 10° S 18:54:20 85° E 19:00:22 10° N
METEOR-M 4.1 18:51:26 10° SSE 18:56:46 79° ENE 19:02:08 10° N
FengYun 1-2 T 4.5 18:54:57 10° SE 19:00:07 46° ENE 19:05:20 10° N
ERBS 2.5 18:58:11 10° NW 19:01:40 77° SW 19:05:07 10° SE
Cosmos 44 3.1 18:58:03 10° NNW 19:02:26 54° NE 19:06:39 10° SE
NOAA 12 4.2 18:59:07 10° SSE 19:04:25 86° WSW 19:09:47 10° NNW
Nadezhda 1 Rocket 3.9 18:58:27 10° N 19:04:35 79° E 19:10:38 10° S
Resurs 01 Rocket 2.1 19:02:22 10° SE 19:06:26 38° ENE 19:10:32 10° N
GEOS 3 Rocket 3.6 19:02:12 10° NE 19:07:28 89° SE 19:12:45 10° SW
Cosmos 2181 Rocket 4.4 19:04:04 10° N 19:09:49 38° ENE 19:15:36 10° SE
Cosmos 2082 Rocket 4.5 19:05:38 10° WSW 19:10:05 23° NW 19:14:36 10° N
Cosmos 1536 Rocket 3.9 19:06:15 10° N 19:10:29 41° ENE 19:14:43 10° SSE
SL-16 R/B 2.2 19:08:29 10° NNW 19:14:09 64° ENE 19:19:46 10° SE
Cosmos 1190 Rocket 3.9 19:09:43 10° S 19:14:50 66° ESE 19:20:00 10° NNE
Meteor 1-20 Rocket 4.2 19:09:58 10° S 19:15:46 79° E 19:21:39 10° NNE
Okean 1 3.3 19:13:34 10° N 19:17:35 58° E 19:21:35 10° SSE
DNEPR-1 R/B 3.6 19:14:14 10° NNW 19:18:25 51° NE 19:20:47 23° ESE
FREGAT/IRIS 3.3 19:18:22 10° S 19:21:24 57° W 19:24:27 10° NNW
Cosmos 1140 Rocket 4.2 19:21:37 10° SSE 19:25:58 29° E 19:26:22 28° E
Helios 1B rocket 3.9 19:27:48 21° SE 19:27:48 21° SE 19:29:42 10° SSE
Spot 2 Rocket 3.4 19:22:20 10° SSE 19:27:18 64° ENE 19:32:19 10° N
Cosmos 1633 3.0 19:25:09 10° SSE 19:28:24 39° ESE 19:28:24 39° ESE
CZ-2D R/B 3.4 19:32:26 42° E 19:32:56 45° ENE 19:36:36 10° N
Cosmos 1340 2.8 19:29:15 10° N 19:32:56 47° ENE 19:33:20 45° E
Cosmos 2322 Rocket 2.2 19:28:39 10° NNW 19:34:18 86° WSW 19:39:55 10° SSE
Resurs 1-3 3.5 19:32:04 10° SSE 19:36:24 68° ENE 19:40:46 10° N
Cosmos 1709 Rocket 3.9 19:30:30 10° S 19:36:44 76° E 19:42:56 10° N
HJ-1C 3.8 19:35:15 10° S 19:38:36 63° W 19:41:58 10° NNW
Cosmos 1238 Rocket 4.3 19:36:45 10° N 19:37:41 17° N 19:37:41 17° N
Cosmos 2322 4.2 19:36:15 10° N 19:41:37 39° ENE 19:42:35 36° E
ALOS 2.6 19:37:57 10° S 19:42:35 69° W 19:47:16 10° NNW
Envisat 4.1 19:44:45 26° NE 19:44:45 26° NE 19:47:50 10° N
Cosmos 1954 Rocket 4.0 19:39:04 10° S 19:44:07 57° ESE 19:47:49 19° NNE
Cosmos 1300 Rocket 3.5 19:41:38 10° S 19:45:57 63° E 19:50:21 10° NNE
Meteor 1-11 Rocket 3.7 19:41:24 10° S 19:47:00 60° E 19:52:46 10° NNE
H-2A R/B 2.6 19:45:43 20° S 19:48:09 84° WSW 19:51:54 10° NNW
Meteor 2-4 Rocket 3.9 19:43:55 10° N 19:49:18 45° ENE 19:49:51 43° E
COSMOS 2428 3.9 19:46:18 10° N 19:50:11 25° NE 19:50:11 25° NE
Spot 1 3.7 19:52:14 68° E 19:52:21 69° ENE 19:56:26 10° N
CENTAUR R/B 4.3 19:48:23 10° NW 19:55:46 42° WSW 20:03:26 10° S
Cosmos 1818 3.5 19:57:20 10° SSW 20:02:46 87° WNW 20:05:17 34° NNE
BREEZE-M DEB (TANK) 2.6 20:01:59 10° NW 20:04:21 62° N 20:04:21 62° N
Cosmos 2237 Rocket 4.4 20:05:43 10° NNE 20:06:20 11° NNE 20:06:20 11° NNE
Okean 1 Rocket 4.2 20:06:27 10° S 20:16:04 - N 20:08:55 33° S
DELTA 2 R/B (1) 3.5 20:09:52 10° W 20:15:28 74° S 20:15:51 71° SSE
Tiangong 2 4.0 20:22:19 10° WNW 20:23:09 17° W 20:23:09 17° W
Cosmos 1461 4.0 20:21:37 10° NW 20:25:02 40° W 20:25:02 40° W
Cosmos 2360 Rocket 2.1 20:22:51 10° NNW 20:28:32 81° WSW 20:28:48 78° SSW
Helios 1A 4.0 20:29:01 45° W 20:29:01 45° W 20:32:40 10° NNW
Cosmos 2219 Rocket 3.9 20:28:39 10° N 20:30:39 20° N 20:30:39 20° N
Resurs 01 Rocket 4.2 20:39:53 10° SW 20:43:03 19° W 20:46:13 10° NW
Cosmos 2333 Rocket 4.1 20:42:02 10° N 20:43:49 18° N 20:43:49 18° N
BREEZE-M DEB (TANK) 4.3 20:52:51 10° WNW 20:55:41 58° NW 20:55:41 58° NW
